| time (UTC) | temp C | wind direction | speed KPH | gust KPH | rain 1hr cm | rain 24hr cm | rain mn cm | humidity % | barometer mb |
| 20260503021307 | 16 | 313 | 1.6 | 4.8 | 0.00 | 0.00 | 0.00 | 48 | 1017.1 |
| 20260503015806 | 16 | 313 | 1.6 | 4.8 | 0.00 | 0.00 | 0.00 | 49 | 1017.2 |
| 20260503014305 | 16 | 315 | 1.6 | 4.8 | 0.00 | 0.00 | 0.00 | 49 | 1017.2 |
| 20260503012804 | 16 | 315 | 0.0 | 4.8 | 0.00 | 0.00 | 0.00 | 49 | 1017.4 |
| 20260503011303 | 16 | 316 | 0.0 | 3.2 | 0.00 | 0.00 | 0.00 | 49 | 1017.4 |
| 20260503005803 | 16 | 329 | 3.2 | 8.0 | 0.00 | 0.00 | 0.00 | 50 | 1017.7 |
| 20260503004302 | 16 | 272 | 3.2 | 6.4 | 0.00 | 0.00 | 0.00 | 49 | 1018.0 |
| 20260503002801 | 16 | 281 | 1.6 | 6.4 | 0.00 | 0.00 | 0.00 | 50 | 1018.2 |
| 20260503001300 | 16 | 305 | 0.0 | 0.0 | 0.00 | 0.00 | 0.00 | 50 | 1018.4 |
| 20260502235759 | 16 | 269 | 1.6 | 4.8 | 0.00 | 0.00 | 0.00 | 49 | 1018.5 |
| 20260502234258 | 16 | 245 | 1.6 | 6.4 | 0.00 | 0.00 | 0.00 | 49 | 1018.6 |
| 20260502232757 | 16 | 249 | 3.2 | 6.4 | 0.00 | 0.00 | 0.00 | 49 | 1018.7 |
| 20260502231257 | 16 | 230 | 4.8 | 9.7 | 0.00 | 0.00 | 0.00 | 50 | 1018.7 |
| 20260502225756 | 16 | 265 | 3.2 | 6.4 | 0.00 | 0.00 | 0.00 | 50 | 1018.6 |
| 20260502224255 | 16 | 296 | 3.2 | 6.4 | 0.00 | 0.00 | 0.00 | 50 | 1018.7 |
| 20260502222754 | 16 | 298 | 3.2 | 6.4 | 0.00 | 0.00 | 0.00 | 50 | 1018.8 |
| 20260502221253 | 16 | 286 | 1.6 | 9.7 | 0.00 | 0.00 | 0.00 | 50 | 1018.8 |
| 20260502215752 | 16 | 311 | 1.6 | 6.4 | 0.00 | 0.00 | 0.00 | 49 | 1019.0 |
| 20260502214251 | 16 | 305 | 1.6 | 6.4 | 0.00 | 0.00 | 0.00 | 50 | 1019.1 |
| 20260502212751 | 16 | 274 | 3.2 | 9.7 | 0.00 | 0.00 | 0.00 | 51 | 1019.3 |
| 20260502211250 | 16 | 305 | 1.6 | 4.8 | 0.00 | 0.00 | 0.00 | 51 | 1019.2 |
| 20260502205749 | 16 | 291 | 3.2 | 11.3 | 0.00 | 0.00 | 0.00 | 51 | 1019.2 |
| 20260502204248 | 16 | 256 | 3.2 | 11.3 | 0.00 | 0.00 | 0.00 | 51 | 1019.2 |
| 20260502202747 | 16 | 324 | 3.2 | 6.4 | 0.00 | 0.00 | 0.00 | 52 | 1019.0 |
| 20260502201246 | 16 | 310 | 1.6 | 4.8 | 0.00 | 0.00 | 0.00 | 53 | 1019.0 |
| 20260502195745 | 16 | 286 | 3.2 | 6.4 | 0.00 | 0.00 | 0.00 | 53 | 1018.7 |
| 20260502194245 | 16 | 232 | 3.2 | 11.3 | 0.00 | 0.00 | 0.00 | 53 | 1018.8 |
| 20260502192744 | 16 | 264 | 4.8 | 12.9 | 0.00 | 0.00 | 0.00 | 54 | 1018.8 |
| 20260502191243 | 16 | 269 | 3.2 | 11.3 | 0.00 | 0.00 | 0.00 | 56 | 1018.7 |
| 20260502185742 | 16 | 255 | 4.8 | 12.9 | 0.00 | 0.00 | 0.00 | 58 | 1018.8 |
| 20260502184241 | 17 | 302 | 3.2 | 6.4 | 0.00 | 0.00 | 0.00 | 59 | 1018.7 |
| 20260502182740 | 17 | 283 | 4.8 | 11.3 | 0.00 | 0.00 | 0.00 | 61 | 1018.8 |
| 20260502181239 | 17 | 302 | 4.8 | 14.5 | 0.00 | 0.00 | 0.00 | 62 | 1018.6 |
| 20260502164234 | 18 | 329 | 6.4 | 16.1 | 0.00 | 0.00 | 0.00 | 68 | 1019.5 |
| 20260502162733 | 18 | 250 | 8.0 | 17.7 | 0.00 | 0.00 | 0.00 | 69 | 1019.3 |
| 20260502161233 | 18 | 306 | 9.7 | 16.1 | 0.00 | 0.00 | 0.00 | 68 | 1019.3 |
| 20260502151229 | 18 | 302 | 6.4 | 16.1 | 0.00 | 0.00 | 0.00 | 68 | 1020.0 |
| 20260502122720 | 20 | 315 | 3.2 | 16.1 | 0.00 | 0.00 | 0.00 | 66 | 1021.4 |
| 20260502121219 | 19 | 5 | 3.2 | 6.4 | 0.00 | 0.00 | 0.00 | 67 | 1021.5 |
| 20260502115718 | 19 | 290 | 6.4 | 17.7 | 0.00 | 0.00 | 0.00 | 67 | 1021.6 |
| 20260502114217 | 18 | 264 | 4.8 | 11.3 | 0.00 | 0.00 | 0.00 | 67 | 1021.7 |
| 20260502112716 | 18 | 223 | 3.2 | 8.0 | 0.00 | 0.00 | 0.00 | 68 | 1021.9 |
| 20260502111215 | 18 | 240 | 3.2 | 9.7 | 0.00 | 0.00 | 0.00 | 68 | 1022.0 |
| 20260502105715 | 18 | 253 | 4.8 | 9.7 | 0.00 | 0.00 | 0.00 | 68 | 1022.0 |
| 20260502104214 | 17 | 281 | 4.8 | 12.9 | 0.00 | 0.00 | 0.00 | 68 | 1022.2 |
| 20260502102713 | 18 | 303 | 4.8 | 11.3 | 0.00 | 0.00 | 0.00 | 68 | 1022.4 |
| 20260502101212 | 18 | 256 | 1.6 | 6.4 | 0.00 | 0.00 | 0.00 | 68 | 1022.6 |
| 20260502091209 | 17 | 309 | 1.6 | 6.4 | 0.00 | 0.00 | 0.00 | 63 | 1022.8 |
| 20260502071202 | 16 | 329 | 1.6 | 4.8 | 0.00 | 0.00 | 0.00 | 57 | 1022.9 |
| 20260502065701 | 16 | 313 | 1.6 | 4.8 | 0.00 | 0.00 | 0.00 | 56 | 1022.9 |
| 20260502064200 | 16 | 311 | 1.6 | 6.4 | 0.00 | 0.00 | 0.00 | 55 | 1022.8 |
| 20260502062659 | 16 | 275 | 3.2 | 9.7 | 0.00 | 0.00 | 0.00 | 53 | 1022.6 |
| 20260502061158 | 16 | 263 | 3.2 | 9.7 | 0.00 | 0.00 | 0.00 | 53 | 1022.7 |
| 20260502055658 | 16 | 261 | 1.6 | 6.4 | 0.00 | 0.00 | 0.00 | 52 | 1022.6 |
| 20260502054157 | 16 | 264 | 1.6 | 6.4 | 0.00 | 0.00 | 0.00 | 52 | 1022.5 |
| 20260502052656 | 16 | 242 | 3.2 | 8.0 | 0.00 | 0.00 | 0.00 | 52 | 1022.5 |
| 20260502051155 | 16 | 234 | 1.6 | 9.7 | 0.00 | 0.00 | 0.00 | 53 | 1022.5 |
| 20260502045654 | 16 | 256 | 3.2 | 6.4 | 0.00 | 0.00 | 0.00 | 53 | 1022.4 |
| 20260502044153 | 16 | 246 | 3.2 | 11.3 | 0.00 | 0.00 | 0.00 | 53 | 1022.4 |
| 20260502042652 | 16 | 292 | 4.8 | 6.4 | 0.00 | 0.00 | 0.00 | 53 | 1022.4 |
| 20260502041152 | 16 | 289 | 4.8 | 9.7 | 0.00 | 0.00 | 0.00 | 53 | 1022.4 |
| 20260502035651 | 16 | 300 | 4.8 | 8.0 | 0.00 | 0.00 | 0.00 | 52 | 1022.3 |
| 20260502034150 | 16 | 307 | 4.8 | 12.9 | 0.00 | 0.00 | 0.00 | 51 | 1022.4 |
| 20260502032649 | 16 | 296 | 3.2 | 8.0 | 0.00 | 0.00 | 0.00 | 50 | 1022.3 |
| 20260502031148 | 16 | 300 | 3.2 | 8.0 | 0.00 | 0.00 | 0.00 | 50 | 1022.4 |
| 20260502025647 | 16 | 313 | 3.2 | 6.4 | 0.00 | 0.00 | 0.00 | 51 | 1022.4 |
| 20260502024146 | 16 | 244 | 3.2 | 11.3 | 0.00 | 0.00 | 0.00 | 50 | 1022.5 |
| 20260502022646 | 16 | 263 | 3.2 | 9.7 | 0.00 | 0.00 | 0.00 | 51 | 1022.5 |